Theta_e
317 320 327 325 314 308 311 316 315 320 327 331 325 329 330 330 333 329 341 343 340 341 341 343 340 342 342 341 339 340 338 337 337 335 328 328 325 322 333 332 335 341 338 333 323 325 321 325 324
319 327 326 321 309 309 309 314 319 319 325 321 322 323 326 328 334 336 340 341 341 341 342 341 343 340 341 340 339 339 337 336 336 335 333 328 328 324 321 335 335 339 339 337 330 321 322 322 324
327 326 321 312 305 307 312 316 317 316 318 319 319 319 321 325 333 335 340 340 340 341 342 341 342 339 339 338 338 339 337 337 334 335 337 331 329 328 323 330 337 337 335 333 325 321 318 319 321
326 323 318 312 318 315 316 317 315 316 317 318 319 316 321 324 329 333 342 341 340 340 341 341 341 340 336 338 337 338 337 336 333 332 335 333 328 329 329 326 328 330 333 329 323 316 317 317 321
324 321 312 315 317 316 313 313 315 315 315 316 318 316 320 326 329 334 342 340 339 339 339 341 341 342 336 336 336 336 335 335 332 332 332 331 330 330 330 329 321 322 320 319 319 316 315 319 323
320 315 312 315 315 314 312 311 313 312 313 313 317 317 317 320 323 328 336 339 338 338 338 339 340 340 341 340 336 335 335 334 334 333 333 331 330 333 335 334 330 332 330 322 317 316 316 317 321
314 310 311 311 314 315 313 311 311 311 312 312 314 315 317 316 318 321 331 331 337 334 336 337 338 340 340 340 340 338 336 335 334 334 334 333 331 331 335 337 336 337 337 334 321 317 316 316 317
314 306 309 312 314 316 310 311 311 312 312 311 312 314 316 315 314 313 313 317 325 333 333 333 335 336 337 339 339 339 338 338 337 336 335 334 332 331 330 334 335 335 337 338 335 320 317 317 316
311 307 309 312 313 312 310 311 310 311 311 311 311 313 316 316 313 312 312 312 311 311 314 329 333 333 335 337 337 338 337 337 337 337 336 335 333 332 330 329 330 333 333 337 338 333 319 317 319
308 307 310 309 309 310 309 310 309 310 310 310 311 312 312 312 312 312 311 311 310 310 310 309 309 322 333 333 335 336 336 337 336 335 335 335 334 334 332 331 328 328 330 332 335 337 333 319 318
308 309 309 310 310 310 309 309 308 308 308 309 310 310 309 309 309 310 310 309 309 309 308 308 308 308 309 324 332 332 335 336 336 336 336 336 336 335 333 332 331 328 327 329 332 335 337 333 318
309 310 310 309 308 308 307 307 306 308 308 309 308 309 309 309 309 309 309 309 309 309 309 309 310 309 308 308 309 318 329 331 332 335 335 336 337 337 337 336 332 330 329 328 329 332 334 337 335
308 309 309 308 307 308 308 307 307 307 308 308 308 308 308 309 309 309 309 309 309 310 310 309 310 310 310 310 309 308 308 311 321 330 332 333 335 336 336 337 335 329 328 329 329 331 332 335 337
308 307 307 308 308 309 308 307 308 308 308 309 309 309 309 309 309 309 309 309 310 310 310 310 310 311 311 311 311 310 310 309 308 309 316 331 330 335 336 337 337 335 329 330 331 330 332 333 334
307 307 307 307 308 309 307 306 306 308 309 309 309 309 309 309 310 310 310 311 311 312 312 312 312 312 312 312 312 312 312 312 311 310 308 308 316 330 333 337 336 336 335 335 335 332 332 334 334
304 303 306 307 308 309 306 306 305 308 308 309 309 309 309 309 310 311 312 313 313 313 313 313 313 313 313 313 313 313 313 313 313 312 311 310 308 309 327 331 334 335 335 335 335 335 334 335 335
302 304 307 309 308 308 308 306 306 308 308 309 309 309 309 309 310 312 313 313 313 313 312 312 312 312 312 312 312 312 313 314 314 314 314 312 310 309 308 324 329 332 333 334 334 334 335 334 333
306 306 309 308 307 307 307 306 306 308 308 308 309 309 309 310 311 312 313 313 312 312 312 312 311 311 311 311 311 311 311 312 313 314 314 313 312 310 309 309 319 327 329 332 333 333 334 334 333
304 306 307 307 308 308 307 306 307 307 307 307 308 308 309 311 312 312 312 312 311 310 311 311 311 312 312 313 313 313 313 313 312 312 312 313 313 311 310 310 309 314 323 330 332 333 331 332 332
304 306 306 306 308 308 306 307 307 306 307 308 308 308 310 311 311 311 310 309 309 310 311 311 312 312 312 313 314 313 312 312 312 313 313 312 313 312 310 311 311 309 311 319 329 332 330 330 331
307 306 308 308 307 307 305 304 303 306 308 309 308 309 310 311 311 310 310 309 310 311 311 311 311 312 312 313 314 314 313 312 312 312 312 313 314 313 311 311 311 311 310 311 316 326 329 328 329
309 308 308 308 307 303 304 304 304 306 307 307 309 309 310 311 310 310 308 307 311 311 311 311 311 312 312 311 312 315 314 314 315 314 313 312 311 311 312 312 311 312 314 315 314 314 324 327 327
309 307 308 308 308 300 306 301 304 306 310 306 307 310 311 311 310 309 307 306 307 307 310 310 311 311 312 311 312 314 315 315 315 314 313 312 311 311 311 311 311 313 313 316 317 314 316 325 326
307 308 304 304 304 300 305 303 307 304 309 311 308 309 311 311 310 309 307 306 305 305 306 310 310 311 311 311 311 312 313 314 314 313 313 312 312 312 311 310 311 313 316 314 313 316 314 318 323
306 305 299 299 300 303 305 304 308 307 306 308 309 311 311 310 310 309 307 307 305 305 304 306 309 310 311 311 311 312 312 312 314 314 313 311 310 311 312 311 310 311 311 312 312 313 318 319 318
310 306 299 300 302 303 305 307 308 306 309 309 309 311 311 310 310 309 308 307 306 305 304 304 307 309 309 310 311 310 311 312 312 313 314 314 313 311 311 311 311 313 313 312 312 314 317 319 320
311 307 306 298 303 309 301 302 305 305 305 308 310 311 312 311 310 309 308 308 307 305 304 303 305 307 309 309 310 310 310 310 310 312 313 314 314 314 314 314 313 314 314 313 318 319 320 320 320
309 307 307 304 307 307 304 301 307 304 311 309 308 311 313 312 311 310 309 309 308 306 305 303 303 305 308 309 309 310 309 310 310 312 313 312 313 313 314 316 316 315 312 314 318 318 317 318 318
310 309 307 306 304 307 311 308 302 304 308 309 309 311 312 312 312 311 310 310 309 308 306 304 303 302 304 305 309 310 310 310 310 310 312 312 312 311 312 315 315 313 314 317 317 317 317 317 318
307 308 307 306 306 310 309 311 308 305 306 308 309 311 311 312 312 312 312 311 311 309 308 305 304 302 301 301 302 309 309 308 309 308 310 311 312 312 312 312 312 312 313 313 314 315 315 315 316
Wind_Speed
17 17 17 10 4 5 1 4 1 2 3 3 4 5 8 6 2 3 9 6 5 5 4 3 6 7 6 6 6 5 3 2 2 2 3 1 2 3 5 6 6 5 5 3 3 5 5 6 6
19 19 13 4 5 3 4 3 3 1 5 9 9 6 6 3 4 7 7 6 4 4 4 4 3 7 7 6 6 6 4 3 2 1 1 1 1 2 4 5 7 5 4 3 2 1 4 6 7
19 17 5 5 4 5 4 3 3 2 5 1 5 8 4 3 7 5 7 7 4 5 4 3 5 6 8 8 7 7 6 6 4 3 2 2 1 2 4 6 7 6 6 6 5 3 6 7 8
11 6 6 4 4 2 1 3 1 1 6 5 9 6 5 4 4 5 8 8 4 3 5 6 6 5 8 8 8 7 7 7 6 5 5 3 3 3 4 7 9 8 8 7 4 3 6 8 9
10 5 4 4 3 1 1 1 1 2 3 5 2 4 4 7 7 7 7 8 5 4 3 5 5 4 6 8 8 8 8 8 7 7 6 5 4 4 5 6 8 7 6 5 5 5 7 9 10
4 3 4 4 3 1 1 3 2 3 3 4 5 5 4 8 6 6 6 7 5 3 2 4 6 7 7 8 9 10 10 9 9 9 8 7 7 6 6 7 9 8 6 5 5 6 8 9 11
5 4 4 6 6 3 1 2 3 4 3 4 5 4 5 7 6 6 6 4 5 3 2 4 6 8 9 9 11 12 11 11 11 11 11 10 10 9 9 10 11 12 11 9 7 8 10 10 11
4 4 4 1 5 3 2 3 5 4 2 4 3 4 4 8 6 4 3 3 2 3 5 6 8 9 10 10 11 12 13 13 14 13 13 13 13 12 12 13 13 14 15 14 11 10 12 12 13
3 4 2 5 5 4 1 2 3 3 3 4 3 4 7 8 6 3 3 2 2 3 5 7 10 11 13 14 14 13 13 15 15 16 16 16 16 16 16 16 16 16 16 17 16 15 14 15 15
5 4 4 1 1 3 3 3 1 2 2 3 6 7 7 6 5 5 7 7 8 9 9 11 12 14 16 17 17 17 17 17 17 17 18 20 20 19 19 19 19 19 19 18 19 19 17 17 18
3 3 3 3 3 3 2 3 2 3 2 2 5 8 4 3 4 6 9 11 13 12 10 10 11 14 17 19 21 21 21 22 22 20 20 21 23 23 23 23 22 22 22 22 22 22 24 21 20
6 5 2 3 4 3 3 3 2 1 2 3 4 6 3 5 7 8 8 8 8 9 10 10 11 11 12 17 20 23 24 25 25 26 26 25 27 27 26 27 26 25 25 26 25 25 25 25 22
5 3 6 6 7 7 3 3 3 6 5 10 10 9 8 7 6 7 8 11 12 14 14 15 16 16 16 16 17 19 22 25 27 29 29 30 30 31 31 28 28 28 27 28 28 28 27 27 27
4 9 5 6 6 6 5 2 6 1 2 3 3 3 3 5 6 8 11 13 15 15 16 17 17 19 20 21 21 22 23 24 26 28 30 32 34 34 33 32 30 28 29 30 31 31 29 27 27
5 4 3 8 5 4 7 3 5 5 4 3 2 1 5 9 11 12 13 12 13 14 16 18 19 20 23 25 27 28 28 29 29 29 29 32 34 36 36 35 34 33 30 29 31 31 31 30 28
5 5 3 4 4 4 4 7 3 3 2 4 5 7 10 11 10 10 10 12 14 17 20 22 25 28 30 32 33 34 34 33 33 32 32 32 32 35 37 39 36 35 35 32 33 33 34 34 35
7 2 1 2 3 4 3 6 3 3 6 15 17 20 17 14 13 12 13 15 18 22 26 29 31 33 34 35 37 37 37 36 35 34 33 32 34 33 36 39 39 37 37 35 32 34 38 35 36
4 4 1 1 5 4 5 10 12 21 15 23 24 23 22 15 13 13 14 17 21 25 28 31 33 33 34 35 35 36 38 40 39 38 36 33 33 34 33 36 40 37 37 36 33 32 32 34 33
5 4 3 0 2 3 4 10 17 17 19 25 27 23 16 12 11 11 14 18 22 23 26 25 26 24 25 26 29 31 34 34 35 35 35 32 30 31 30 31 33 38 38 37 32 33 32 32 31
6 3 3 3 1 2 4 15 18 16 9 10 13 11 10 9 9 10 14 16 19 22 23 21 21 19 21 21 24 26 27 30 32 31 29 28 25 26 28 28 29 31 34 34 33 30 32 33 32
4 5 1 2 5 0 7 8 6 2 4 4 4 7 9 8 9 10 11 15 17 19 21 19 18 18 18 19 20 22 22 23 21 16 14 16 19 21 23 24 25 25 27 33 35 31 29 32 31
1 1 1 2 4 3 4 5 7 2 6 5 11 12 11 9 9 9 10 16 18 19 21 20 19 19 18 19 18 20 20 20 17 15 14 14 16 17 20 22 22 22 21 24 28 32 29 30 30
1 1 1 1 3 4 1 2 8 3 5 7 15 18 14 10 10 9 10 14 16 18 20 19 17 17 17 18 15 16 17 16 16 15 15 15 14 14 16 18 20 20 21 21 21 27 28 28 28
2 3 5 4 2 2 1 4 6 4 5 2 3 13 17 13 11 10 11 13 14 16 18 20 20 16 14 14 15 13 14 15 15 14 15 15 16 15 15 16 17 18 17 20 21 19 27 29 28
4 4 3 5 3 5 1 1 11 6 7 5 5 7 11 13 13 13 13 13 13 15 16 19 21 20 16 14 15 13 14 14 14 14 14 14 14 13 14 14 15 17 18 20 21 21 21 25 31
1 4 4 5 2 5 0 7 6 5 5 8 11 12 12 15 15 15 14 14 15 16 16 16 18 19 18 17 15 15 17 15 15 14 13 14 14 13 12 13 13 14 17 19 18 17 18 20 23
2 0 3 5 1 3 3 8 10 7 9 11 13 14 18 17 17 16 15 14 16 17 16 15 16 17 17 17 17 15 14 17 17 15 15 14 13 13 11 10 11 12 13 13 12 12 13 15 18
2 4 3 2 1 5 5 6 6 4 4 5 9 19 19 17 17 16 15 15 16 17 17 15 16 15 15 16 18 18 15 15 16 13 11 13 13 15 14 12 11 10 14 12 11 10 10 12 12
2 2 2 2 4 3 4 6 7 8 7 8 11 13 13 14 17 18 18 18 18 18 17 16 16 15 14 14 15 17 16 15 15 15 13 10 11 11 10 8 8 8 12 9 9 10 10 11 13
4 6 6 3 4 4 2 9 4 8 8 8 9 9 10 12 14 18 21 22 22 20 18 17 16 17 16 15 14 11 13 14 14 14 14 13 9 6 8 5 6 8 8 9 10 12 12 14 16
Wind_Direction
153 150 147 137 74 66 239 253 286 145 91 49 131 122 122 58 76 161 142 146 156 175 162 220 224 223 210 204 208 203 188 186 139 63 38 76 143 165 157 156 146 144 150 151 82 133 141 153 159
148 145 139 111 93 93 256 263 195 174 142 109 81 70 56 79 82 112 119 123 152 177 183 214 264 223 223 219 222 215 211 207 226 271 16 49 165 201 191 173 170 174 215 250 314 201 187 179 181
146 145 118 97 113 168 180 219 169 77 154 184 106 72 68 82 113 113 122 123 146 163 176 218 280 233 230 227 227 224 222 213 224 245 263 312 242 224 212 192 176 197 240 267 291 252 205 194 191
143 123 71 88 163 201 154 174 184 85 78 82 105 63 77 118 118 114 129 119 122 153 179 207 247 245 224 235 233 233 233 233 244 241 244 277 276 245 232 220 209 214 239 260 263 234 195 193 195
138 116 71 89 134 116 51 24 317 81 76 53 97 126 102 119 113 109 130 122 112 123 188 244 265 263 247 237 241 240 241 242 247 248 254 268 275 259 246 232 215 229 248 246 244 218 200 198 203
94 94 81 158 175 96 37 21 93 76 73 70 84 101 134 140 132 113 127 143 141 105 187 226 254 275 264 258 244 241 244 249 251 253 256 266 269 260 259 240 231 244 254 260 246 223 211 210 217
110 81 146 133 156 135 130 55 76 102 79 48 121 97 142 144 131 120 127 147 158 190 223 255 268 266 266 271 262 247 243 246 250 254 258 264 263 257 252 252 249 249 253 259 255 233 223 220 223
94 92 97 139 175 159 15 91 91 87 82 96 105 156 156 163 156 150 144 144 172 226 239 229 257 265 265 275 277 259 255 254 255 255 258 261 260 259 257 256 258 257 254 253 255 247 234 229 229
82 62 126 169 159 147 55 95 60 77 111 86 90 118 136 166 183 213 227 245 274 290 285 267 256 250 260 265 266 274 271 264 261 262 262 261 261 261 261 262 259 258 257 253 251 250 245 237 234
70 85 171 86 49 130 89 94 73 83 71 99 112 126 135 167 216 259 282 293 304 302 298 289 274 261 255 256 261 266 267 271 271 269 269 268 264 261 261 260 260 259 256 254 252 248 249 245 239
71 112 151 59 65 82 80 85 38 112 279 209 191 159 162 217 270 293 300 304 302 305 307 301 284 268 261 255 255 255 259 263 265 267 267 266 268 267 262 260 258 258 258 255 252 247 245 247 246
95 70 71 95 44 57 43 347 18 214 181 81 186 192 256 281 288 292 293 290 286 284 285 285 283 277 269 263 259 256 256 254 257 260 258 263 266 265 265 263 259 258 258 259 256 254 252 248 250
72 100 67 74 58 60 357 352 310 274 280 268 238 257 282 275 278 284 289 293 292 289 287 286 284 282 281 279 273 270 266 262 258 255 256 262 260 262 266 266 264 257 258 259 259 257 254 251 247
81 88 90 52 47 35 15 327 337 177 96 45 119 172 239 266 276 283 286 287 289 290 288 286 283 284 287 286 285 281 276 272 268 262 257 254 260 262 260 263 262 260 256 258 258 256 256 255 252
87 73 52 21 15 18 345 279 238 278 294 180 157 290 289 286 284 284 286 292 295 296 294 290 288 287 288 288 289 287 285 281 275 270 266 261 257 256 263 263 260 258 254 257 260 256 254 252 249
60 50 90 337 358 4 22 268 263 328 215 246 265 303 299 284 276 283 292 296 297 298 295 294 293 294 292 289 287 286 285 283 280 275 269 263 261 258 253 260 262 261 262 262 261 259 255 256 255
14 147 93 8 10 346 59 273 255 216 291 291 283 291 293 281 278 285 293 299 301 301 299 296 294 292 290 288 285 282 280 279 279 278 277 271 264 260 257 252 258 263 266 263 265 263 259 264 261
168 112 62 40 330 356 312 273 279 284 280 280 284 283 284 274 279 285 292 296 299 300 298 297 295 294 293 292 291 289 285 282 279 279 278 275 269 260 257 258 253 257 261 266 263 260 262 265 268
118 96 107 314 28 342 265 282 280 285 279 281 283 278 260 256 269 281 292 301 304 305 307 305 305 302 301 302 302 298 297 291 283 276 273 273 272 266 258 260 262 255 256 258 264 264 267 269 268
54 84 9 283 221 359 327 286 278 281 260 270 283 238 233 244 261 290 308 317 319 321 321 312 316 315 313 312 317 317 316 312 304 292 281 269 272 270 261 260 265 263 259 259 261 260 262 263 262
34 113 113 242 325 13 328 284 297 267 276 277 236 221 230 252 277 301 317 328 328 330 333 317 315 314 324 318 321 322 319 322 330 328 307 284 279 275 259 261 271 273 266 259 259 260 258 261 265
119 197 60 346 38 263 28 277 295 345 281 251 240 231 236 258 281 301 321 340 339 338 337 328 315 312 315 322 319 323 323 325 333 326 314 298 285 276 257 260 271 265 267 271 265 257 258 259 262
131 98 33 54 71 37 359 52 269 333 283 253 239 234 239 262 278 289 310 330 346 348 346 339 329 318 310 314 315 315 319 314 314 317 308 305 297 282 276 272 265 264 264 266 271 264 256 255 264
125 89 47 53 67 1 216 130 278 226 212 259 258 236 236 255 260 280 300 311 322 335 348 356 351 340 329 321 325 310 322 325 317 312 304 298 289 285 291 282 273 268 270 270 270 270 256 250 257
72 58 340 349 8 225 151 21 248 261 240 228 240 244 238 244 250 274 288 298 314 326 345 356 357 354 346 338 340 331 320 314 313 312 312 316 316 303 289 284 279 275 276 278 272 267 264 250 251
57 138 153 226 256 284 304 236 252 231 250 262 251 254 254 245 254 272 284 295 305 317 335 349 354 354 348 336 332 339 333 319 302 304 307 307 308 310 304 294 282 288 290 283 277 268 269 261 254
170 231 155 99 210 283 252 284 287 254 263 253 254 251 254 254 257 268 280 295 303 306 318 331 341 352 357 357 348 329 333 334 323 305 301 299 299 299 300 295 289 288 293 285 276 273 268 266 259
190 151 83 9 286 286 285 277 241 305 247 224 240 244 253 257 262 270 282 289 294 299 305 314 321 337 346 0 358 353 345 338 342 338 320 315 303 290 288 287 289 293 308 283 271 275 282 263 254
144 206 93 127 156 194 299 263 213 219 212 205 226 236 252 260 266 274 278 283 287 289 293 299 307 314 322 347 359 5 4 359 348 333 329 330 331 320 306 290 283 308 314 288 276 278 272 272 267
180 182 161 138 216 222 254 273 247 233 241 236 248 250 252 267 281 289 282 276 279 284 288 292 299 306 310 318 331 344 348 354 355 0 354 334 310 307 319 322 323 309 306 304 301 304 291 281 272